Location: Unspecified
(43.4354°N, 0.0000°E)
Time: 21:01:37
(UTC+00:00)

A-11 Canister half - Pass Details

Date: 20 June 2019
Orbit: 1514 x 1686 km, 47.2° (Epoch: 21 October)

Event Time Altitude Azimuth Distance (km) Brightness Sun altitude
Rises 08:08:48 0° 170° (S) 4,913 11.8 38.7°
Reaches altitude 10° 08:14:36 10° 145° (SE) 3,908 11.7 39.7°
Maximum altitude 08:18:20 13° 122° (ESE) 3,679 12.0 40.4°
Drops below altitude 10° 08:22:00 10° 100° (E) 3,872 12.3 41.1°
Sets 08:27:38 0° 74° (ENE) 4,824 12.3 42.1°
